Haines, AK

4:55 PM AKDT on August 28, 2016 (GMT -0800)
Haines

Weather History for PAHN - September, 2013

Change the Weather History Date:

Thursday, September 19, 2013

  Actual Average Record
Temperature  
Mean Temperature 47 °F -  
Max Temperature 50 °F 52 °F 67 °F (1973)
Min Temperature 44 °F 43 °F 28 °F (1978)
Degree Days  
Heating Degree Days 18    
Moisture  
Dew Point 45 °F    
Average Humidity 92    
Maximum Humidity 100    
Minimum Humidity 86    
Precipitation  
Precipitation 0.95 in - - ()
Sea Level Pressure  
Sea Level Pressure 29.46 in    
Wind  
Wind Speed 6 mph (NW)    
Max Wind Speed 15 mph    
Max Gust Speed 22 mph    
Visibility 8 miles    
Events Rain    
Averages and records for this station are not official NWS values.
T = Trace of Precipitation, MM = Missing Value Source: NWS Daily Summary

Daily Weather History Graph

Daily Weather History Graph

Search for Another Location

Airport or City:

Trip Planner

Search our weather history database for the weather conditions in past years. The results will help you decide how hot, cold, wet, or windy it might be!

Date:

Astronomy

Sep. 19, 2013 Rise Set
Actual Time 6:40 AM AKDT 7:09 PM AKDT
Civil Twilight 5:59 AM AKDT 7:49 PM AKDT
Nautical Twilight 5:10 AM AKDT 8:39 PM AKDT
Astronomical Twilight 4:15 AM AKDT 9:33 PM AKDT
Moon 6:50 PM AKDT (9/19) 7:13 AM AKDT (9/19)
Length of Visible Light 13h 50m
Length of Day
12h 28m
Full, 100% of the Moon is Illuminated
Sep 19
Full
Sep 26
Last Quarter
Oct 4
New
Oct 11
First Quarter
Oct 18
Full

Hourly Weather History & Observations

Time (AKDT) Temp. Windchill Dew Point Humidity Pressure Visibility Wind Dir Wind Speed Gust Speed Precip Events Conditions
12:25 AM 46.4 °F - 44.6 °F 93% 29.74 in 10.0 mi Calm Calm - N/A   Overcast
12:34 AM 46.4 °F - 44.6 °F 93% 29.74 in 10.0 mi Calm Calm - N/A   Overcast
12:54 AM 46.9 °F - 45.0 °F 93% 29.74 in 10.0 mi Calm Calm - N/A   Overcast
1:54 AM 46.9 °F - 45.0 °F 93% 29.72 in 7.0 mi Calm Calm - 0.01 in Rain Light Rain
2:47 AM 46.4 °F 45.2 °F 46.4 °F 100% 29.68 in 10.0 mi WNW 3.5 mph - 0.00 in   Overcast
2:54 AM 46.9 °F - 45.0 °F 93% 29.69 in 9.0 mi West 5.8 mph - 0.00 in   Overcast
3:54 AM 46.9 °F - 45.0 °F 93% 29.65 in 10.0 mi NW 8.1 mph - 0.00 in   Overcast
4:54 AM 46.9 °F - 45.0 °F 93% 29.62 in 10.0 mi WNW 10.4 mph - N/A   Overcast
5:54 AM 46.9 °F - 44.1 °F 90% 29.58 in 10.0 mi WNW 10.4 mph - N/A   Overcast
6:54 AM 46.0 °F 40.6 °F 44.1 °F 93% 29.54 in 10.0 mi WNW 11.5 mph - N/A   Overcast
7:54 AM 46.9 °F - 44.1 °F 90% 29.52 in 10.0 mi NW 12.7 mph - N/A   Overcast
8:54 AM 48.0 °F - 44.1 °F 86% 29.51 in 9.0 mi NW 10.4 mph - 0.02 in   Overcast
9:54 AM 48.0 °F - 45.0 °F 89% 29.48 in 10.0 mi WNW 10.4 mph - 0.02 in   Overcast
10:54 AM 48.9 °F - 46.0 °F 90% 29.44 in 10.0 mi WNW 15.0 mph - 0.00 in   Overcast
11:54 AM 50.0 °F - 46.0 °F 86% 29.42 in 10.0 mi WNW 15.0 mph - 0.01 in   Overcast
12:54 PM 50.0 °F - 46.0 °F 86% 29.40 in 10.0 mi NW 12.7 mph - 0.00 in Rain Light Rain
1:54 PM 50.0 °F - 46.9 °F 89% 29.39 in 6.0 mi WNW 9.2 mph - 0.02 in Rain Light Rain
2:54 PM 50.0 °F - 48.0 °F 93% 29.38 in 5.0 mi WNW 4.6 mph - 0.05 in Rain Rain
3:54 PM 48.9 °F - 48.0 °F 97% 29.36 in 3.0 mi West 4.6 mph - 0.11 in Rain Rain
4:54 PM 48.9 °F - 46.9 °F 93% 29.34 in 3.0 mi NW 5.8 mph - 0.11 in Rain Rain
5:54 PM 48.0 °F - 45.0 °F 89% 29.31 in 5.0 mi NW 9.2 mph - 0.13 in Rain Rain
6:54 PM 48.0 °F - 46.0 °F 93% 29.30 in 6.0 mi WNW 12.7 mph - 0.09 in Rain Rain
7:54 PM 48.0 °F - 46.0 °F 93% 29.30 in 6.0 mi NW 11.5 mph - 0.10 in Rain Rain
8:03 PM 48.2 °F - 46.4 °F 93% 29.29 in 6.0 mi NW 10.4 mph - 0.02 in Rain Rain
8:29 PM 46.4 °F 40.7 °F 44.6 °F 93% 29.29 in 5.0 mi NW 12.7 mph 19.6 mph 0.07 in Rain Rain
8:54 PM 46.9 °F - 45.0 °F 93% 29.29 in 5.0 mi NW 11.5 mph - 0.13 in Rain Rain
9:54 PM 46.0 °F 41.0 °F 44.1 °F 93% 29.28 in 6.0 mi NW 10.4 mph - 0.08 in Rain Light Rain
10:54 PM 46.0 °F 39.6 °F 43.0 °F 89% 29.25 in 9.0 mi NW 15.0 mph 21.9 mph 0.05 in Rain Light Rain
11:45 PM 44.6 °F 38.1 °F 42.8 °F 93% 29.24 in 10.0 mi NW 13.8 mph - 0.01 in   Overcast
11:54 PM 45.0 °F 38.5 °F 43.0 °F 93% 29.25 in 7.0 mi NW 13.8 mph 21.9 mph 0.02 in Rain Rain